FloripaSat 1
1 44885U 19093G   25177.77521527  .00003915  00000-0  33090-3 0  9995
2 44885  97.8157 265.4113 0011684 145.8228 214.3749 14.98614642299320
RS-44
1 44909U 19096E   25177.51894976  .00000025  00000-0  61875-4 0  9990
2 44909  82.5202 216.0243 0216294 255.9073 101.7904 12.79741492256854
UPMSat 2
1 46276U 20061E   25177.45118438  .00065604  00000-0  52673-3 0  9997
2 46276  97.2435 252.4261 0002275 154.6123 205.5252 15.70797948268113
SALSAT
1 46495U 20068K   25177.37159845  .00005016  00000-0  21659-3 0  9996
2 46495  97.8608 156.1783 0013122 102.7790 257.4912 15.22929271261081
CubeSX-Sirius-HSE
1 47951U 21022V   25157.62701764  .07883385  25648-5  89537-3 0  9993
2 47951  97.4004  72.1904 0010275 223.9924 136.0557 16.36879307233400
CubeSX-HSE
1 47952U 21022W   25157.69972699  .06655353  25454-5  93288-3 0  9992
2 47952  97.3980  72.5414 0010307 219.3637 140.6911 16.34906352233436
GRBAlpha
1 47959U 21022AD  25160.45426279  .07940347  25506-5  90589-3 0  9995
2 47959  97.3899  75.6235 0011032 227.2558 132.7812 16.36806138232695
TUBIN
1 48900U 21059X   25177.83688239  .00036578  00000-0  42171-3 0  9994
2 48900  97.6752 348.4839 0004141 160.9233 199.2179 15.61863189222734
LEDSAT
1 49069U 21073D   25177.73344858  .00061837  00000-0  68287-3 0  9994
2 49069  97.3885 260.0146 0007373  18.3020 341.8502 15.62840909214119
CUTE
1 49263U 21088D   25177.17343884  .00025170  00000-0  49028-3 0  9994
2 49263  97.4473 253.9120 0008378 174.1927 185.9422 15.47504393206997
TeikyoSat 4
1 49396U 21102B   25177.60803152  .00001127  00000-0  77667-4 0  9992
2 49396  97.4090 215.4216 0014162  77.3107 282.9703 15.07700786199115
Z-Sat
1 49399U 21102E   25177.86333783  .00003310  00000-0  18235-3 0  9992
2 49399  97.3786 218.8705 0019215  48.4703 311.8174 15.14533743199595
KOSEN 1
1 49402U 21102H   25177.58508174  .00004859  00000-0  22480-3 0  9990
2 49402  97.3690 222.1445 0016260  25.7952 334.4091 15.20484788199875
HO-113
1 50466U 21131B   25177.84432208  .00000323  00000-0  11448-3 0  9991
2 50466  98.5108 267.1129 0005430  88.0173 272.1637 14.40831400183938
Foresail-1
1 52766U 22057AL  25176.64799660  .13857605  27391-5  25307-3 0  9992
2 52766  97.5832 331.2310 0012137 233.7199 258.4922 16.46795272172486
SNUGLITE 2
1 52899U 22065F   25177.38062128  .00000684  00000-0  14189-3 0  9994
2 52899  98.1708 319.1922 0008752  65.9516 294.2601 14.63246057158948
UmKA 1 (RS40S)
1 57172U 23091G   25177.84044238  .00004165  00000-0  22305-3 0  9993
2 57172  97.5569 233.1333 0012693 274.7790  85.1992 15.15509542110092
CubeBel-2 (EU11S)
1 57175U 23091K   25177.89034582  .00006809  00000-0  32271-3 0  9992
2 57175  97.5568 234.4357 0010382 282.3024  77.7048 15.19590728110181
VERONIKA
1 58261U 23174F   25177.82617767  .00160703  00000-0  10531-2 0  9994
2 58261  97.4105 265.1001 0003065 271.9513  88.1400 15.75296444 91397
ENSO
1 58470U 23185J   25177.86429574  .00048132  00000-0  65271-3 0  9992
2 58470  97.3730 253.5580 0005554  29.3224 330.8342 15.57506078 87725
EIRSAT-1
1 58472U 23185L   25177.86217795  .00110151  00000-0  87646-3 0  9995
2 58472  97.3668 255.7791 0002058  28.6602 331.4774 15.70869467 87874
SONATE-2
1 59112U 24043Q   25177.30232337  .00012575  00000-0  35759-3 0  9998
2 59112  97.5158 308.8220 0011774  60.1353 300.1059 15.36223905 72908
MO-122
1 60209U 24125G   25177.31296895  .00014104  00000-0  39401-3 0  9996
2 60209  97.2770  28.7479 0020171  79.4493 280.9022 15.36605118 54520
GRBBeta
1 60237U 24128C   25177.57111027  .00002960  00000-0  22940-3 0  9998
2 60237  61.9921  20.3096 0053257  61.3281 299.3149 15.02760377 52755
Curium One
1 60242U 24128H   25177.77841551  .00005383  00000-0  37726-3 0  9998
2 60242  61.9820  17.6238 0053136  57.6300 302.9919 15.05330406 52825
ROBUSTA-3A
1 60243U 24128J   25177.58710593  .00004889  00000-0  34884-3 0  9991
2 60243  61.9889  19.1791 0052003  55.3140 305.2836 15.04856236 52783
CatSat
1 60246U 24125J   25176.57888875  .00007027  00000-0  23310-3 0  9997
2 60246  97.2570  27.0530 0043161  39.3302 321.1060 15.30644618 52437
HYPERVIEW-1G (RS66S)
1 61772U 24199AP  25177.87702094  .00016787  00000-0  47803-3 0  9991
2 61772  97.3508  46.7040 0015120 127.0302 233.2327 15.36060925 79614
AO-123
1 61781U 24199AY  25177.86341465  .00004956  00000-0  18040-3 0  9997
2 61781  97.3524  45.3903 0017119 132.5337 227.7352 15.28550234 79528
ZIMSAT 2
1 61783U 24199BA  25177.86851563  .00030629  00000-0  72311-3 0  9991
2 61783  97.3482  47.4444 0015066 124.3425 235.9250 15.41696830 82814
HADES-R (SO-124)
1 62690U 25009CK  25177.48719686  .00027965  00000-0  95945-3 0  9994
2 62690  97.4094 258.2373 0002917  67.5542 292.6007 15.30119697 24730
HYDRA-T
1 62692U 25009CM  25177.46971743  .00028010  00000-0  95287-3 0  9999
2 62692  97.4094 258.2601 0002517  65.1645 294.9858 15.30396388 24733
JINJUSat 1B
1 63210U 25052A   25177.70252885  .00008101  00000-0  36884-3 0  9997
2 63210  97.4404  71.6112 0002294 255.0780 105.0201 15.20950901 15854
NUSHSAT 1
1 63211U 25052B   25177.49737074  .00008771  00000-0  39609-3 0  9993
2 63211  97.4393  71.4137 0002230 266.9724  93.1257 15.21208252 15827
TEVEL2-4
1 63213U 25052D   25177.64593118  .00008989  00000-0  40950-3 0  9993
2 63213  97.4306  71.4109 0001523 306.3017  53.8077 15.20900695 15844
TEVEL2-5
1 63214U 25052E   25177.51515128  .00008861  00000-0  40398-3 0  9990
2 63214  97.4310  71.2803 0001593 307.3997  52.7093 15.20877196 15827
TEVEL2-6
1 63215U 25052F   25177.64932687  .00009000  00000-0  41071-3 0  9993
2 63215  97.4311  71.4080 0001633 307.6622  52.4465 15.20839320 15840
TEVEL2-1
1 63217U 25052H   25177.66285103  .00008569  00000-0  39371-3 0  9990
2 63217  97.4285  71.3572 0002185 329.3421  30.7686 15.20617607 15844
TEVEL2-2
1 63218U 25052J   25177.66314470  .00008661  00000-0  39788-3 0  9996
2 63218  97.4287  71.3581 0002200 329.5945  30.5162 15.20619333 15843
TEVEL2-3
1 63219U 25052K   25176.93947005  .00007734  00000-0  35587-3 0  9995
2 63219  97.4287  70.6435 0002250 334.8299  25.2826 15.20601055 15738
TEVEL2-8
1 63237U 25052AD  25177.67648034  .00007784  00000-0  37061-3 0  9991
2 63237  97.4350  71.2728 0006843 327.6195  32.4619 15.19400587 15834
TEVEL2-9
1 63238U 25052AE  25177.41606695  .00007521  00000-0  35889-3 0  9996
2 63238  97.4352  71.0118 0006944 328.5286  31.5532 15.19333439 15791
TEVEL2-7
1 63239U 25052AF  25177.68184546  .00007601  00000-0  36297-3 0  9995
2 63239  97.4350  71.2668 0006936 327.9329  32.1483 15.19303758 15832
HYDRA-W
1 63490U 25052BL  25177.62120190  .00019361  00000-0  80084-3 0  9992
2 63490  97.4301  71.5834 0009878 321.1077  38.9448 15.23959521 15856
HADES-ICM (SO-125)
1 63492U 25052BN  25177.44409491  .00019558  00000-0  82026-3 0  9994
2 63492  97.4305  71.3697 0010370 325.5808  34.4756 15.23486264 15825
